Mitchell, SD

7:22 AM CST on November 17, 2019 (GMT -0600)
Mitchell Municipal

Weather History for KMHE - September, 2019

Change the Weather History Date:

Saturday, September 28, 2019

  Actual Average Record
Temperature  
Mean Temperature 52 °F 57 °F  
Max Temperature 63 °F 71 °F 93 °F (1897)
Min Temperature 40 °F 44 °F 23 °F (1951)
Degree Days  
Heating Degree Days 13 9  
Month to date heating degree days 39 123  
Since 1 July heating degree days 48 140  
Cooling Degree Days 0 1  
Month to date cooling degree days 142 71  
Year to date cooling degree days 936 816  
Moisture  
Dew Point 42 °F    
Average Humidity 73    
Maximum Humidity 100    
Minimum Humidity 46    
Precipitation  
Precipitation 0.01 in 0.07 in 0.49 in (2013)
Month to date precipitation 7.63 2.17  
Year to date precipitation 32.67 18.52  
Snow  
Snow 0.00 in - 0.00 in ()
Month to date snowfall 0.0  
Since 1 July snowfall 0.0  
Since 1 September snowfall 0.0  
Snow Depth 0.00 in    
Sea Level Pressure  
Sea Level Pressure 30.12 in    
Wind  
Wind Speed 10 mph (ENE)    
Max Wind Speed 22 mph    
Max Gust Speed 28 mph    
Visibility 10 miles    
Events      
T = Trace of Precipitation, MM = Missing Value Source: NWS Daily Summary

Daily Weather History Graph

Daily Weather History Graph

Search for Another Location

Airport or City:

Astronomy

Sep. 28, 2019 Rise Set
Actual Time 7:26 AM CDT 7:18 PM CDT
Civil Twilight 6:57 AM CDT 7:47 PM CDT
Nautical Twilight 6:23 AM CDT 8:20 PM CDT
Astronomical Twilight 5:49 AM CDT 8:54 PM CDT
Moon 7:01 AM CDT (9/28) 7:46 PM CDT (9/28)
Length of Visible Light 12h 50m
Length of Day
11h 52m
Waning Crescent, 0% of the Moon is Illuminated
Sep 28
Waning Crescent
Sep 28
New
Oct 5
First Quarter
Oct 13
Full
Oct 21
Last Quarter

Hourly Weather History & Observations

Time (CDT) Temp. Windchill Dew Point Humidity Pressure Visibility Wind Dir Wind Speed Gust Speed Precip Events Conditions
12:53 AM 48.0 °F - 42.1 °F 80% 30.04 in 10.0 mi NNW 6.9 mph - N/A   Clear
1:53 AM 46.0 °F 44.8 °F 42.1 °F 86% 30.06 in 10.0 mi NE 3.5 mph - N/A   Clear
2:53 AM 45.0 °F 41.2 °F 42.1 °F 90% 30.08 in 10.0 mi NE 6.9 mph - N/A   Clear
3:53 AM 44.1 °F 42.5 °F 41.0 °F 89% 30.09 in 10.0 mi NE 3.5 mph - N/A   Clear
4:53 AM 44.1 °F - 41.0 °F 89% 30.12 in 10.0 mi Calm Calm - N/A   Clear
5:53 AM 43.0 °F 41.3 °F 41.0 °F 93% 30.13 in 10.0 mi NNE 3.5 mph - N/A   Clear
6:53 AM 39.9 °F 37.8 °F 39.0 °F 97% 30.16 in 8.0 mi NNW 3.5 mph - N/A   Clear
7:53 AM 42.1 °F - 41.0 °F 96% 30.17 in 10.0 mi Calm Calm - N/A   Clear
8:53 AM 48.0 °F - 43.0 °F 83% 30.18 in 10.0 mi ENE 8.1 mph - N/A   Clear
9:53 AM 53.1 °F - 43.0 °F 69% 30.19 in 10.0 mi NE 12.7 mph - N/A   Clear
10:29 AM 54.0 °F - 42.1 °F 64% 30.18 in 10.0 mi East 12.7 mph - N/A   Mostly Cloudy
10:53 AM 54.0 °F - 43.0 °F 66% 30.19 in 10.0 mi East 10.4 mph - N/A   Overcast
11:18 AM 55.0 °F - 44.1 °F 67% 30.17 in 10.0 mi East 10.4 mph - N/A   Scattered Clouds
11:53 AM 55.9 °F - 44.1 °F 64% 30.20 in 10.0 mi East 8.1 mph - N/A   Mostly Cloudy
12:41 PM 57.9 °F - 43.0 °F 58% 30.17 in 10.0 mi East 10.4 mph - N/A   Mostly Cloudy
12:53 PM 57.0 °F - 43.0 °F 59% 30.18 in 10.0 mi East 10.4 mph - N/A   Scattered Clouds
1:53 PM 59.0 °F - 44.1 °F 58% 30.15 in 10.0 mi East 12.7 mph - N/A   Mostly Cloudy
2:53 PM 60.1 °F - 44.1 °F 55% 30.15 in 10.0 mi East 11.5 mph - N/A   Overcast
3:53 PM 59.0 °F - 41.0 °F 51% 30.12 in 10.0 mi East 15.0 mph - N/A   Mostly Cloudy
4:53 PM 60.1 °F - 39.0 °F 46% 30.09 in 10.0 mi East 16.1 mph - N/A   Scattered Clouds
5:53 PM 60.1 °F - 39.0 °F 46% 30.07 in 10.0 mi East 13.8 mph - N/A   Partly Cloudy
6:53 PM 57.9 °F - 39.0 °F 49% 30.07 in 10.0 mi East 12.7 mph - N/A   Overcast
7:53 PM 57.0 °F - 41.0 °F 55% 30.06 in 10.0 mi East 12.7 mph - 0.00 in   Overcast
8:53 PM 57.0 °F - 42.1 °F 57% 30.04 in 10.0 mi East 12.7 mph - N/A   Overcast
10:53 PM 53.1 °F - 46.9 °F 80% 30.06 in 10.0 mi East 10.4 mph - 0.00 in   Overcast
11:53 PM 54.0 °F - 46.9 °F 77% 30.03 in 10.0 mi East 16.1 mph - 0.01 in   Overcast